Time,TemperatureF,DewpointF,PressureIn,WindDirection,WindDirectionDegrees,WindSpeedMPH,WindSpeedGustMPH,Humidity,HourlyPrecipIn,Conditions,Clouds,dailyrainin,SoftwareType,DateUTC
2013-02-27 00:00:00,77.1,73.0,29.91,SSE,156,2.6,6.5,87,0.00,,---,0.00,VWS V13.01,2013-02-27 05:00:00,
2013-02-27 00:01:00,77.0,72.9,29.91,South,176,4.2,4.5,87,0.00,,---,0.00,VWS V13.01,2013-02-27 05:01:00,
2013-02-27 00:06:00,77.2,73.1,29.91,ESE,118,4.4,4.4,87,0.00,,---,0.00,VWS V13.01,2013-02-27 05:06:00,
2013-02-27 00:07:00,76.9,72.8,29.91,South,170,2.5,5.7,87,0.00,,---,0.00,VWS V13.01,2013-02-27 05:07:00,
2013-02-27 00:12:00,77.0,72.8,29.91,SSW,194,3.8,5.2,87,0.00,,---,0.00,VWS V13.01,2013-02-27 05:12:00,
2013-02-27 00:17:00,76.9,72.7,29.91,SSE,159,1.9,2.1,87,0.00,,---,0.00,VWS V13.01,2013-02-27 05:17:00,
2013-02-27 00:22:00,76.7,72.5,29.91,SSE,163,3.0,5.5,87,0.00,,---,0.00,VWS V13.01,2013-02-27 05:22:00,
2013-02-27 00:28:00,76.8,72.5,29.91,SSE,166,4.7,6.0,87,0.00,,---,0.00,VWS V13.01,2013-02-27 05:28:00,
2013-02-27 00:33:00,76.9,72.6,29.91,SE,138,5.8,7.9,87,0.00,,---,0.00,VWS V13.01,2013-02-27 05:33:00,
2013-02-27 00:38:00,76.9,72.6,29.91,SE,127,3.7,5.3,87,0.00,,---,0.00,VWS V13.01,2013-02-27 05:38:00,
2013-02-27 00:43:00,76.9,72.6,29.90,ESE,107,4.4,4.7,87,0.00,,---,0.00,VWS V13.01,2013-02-27 05:43:00,
2013-02-27 00:48:00,76.8,72.5,29.91,South,177,2.4,3.4,87,0.00,,---,0.00,VWS V13.01,2013-02-27 05:48:00,
2013-02-27 00:53:00,76.9,72.7,29.91,SSE,155,2.2,5.0,87,0.00,,---,0.00,VWS V13.01,2013-02-27 05:53:00,
2013-02-27 00:58:00,76.7,72.5,29.90,SSE,158,2.9,4.3,87,0.00,,---,0.00,VWS V13.01,2013-02-27 05:58:00,
2013-02-27 01:03:00,76.9,72.6,29.90,SE,145,2.2,4.5,87,0.00,,---,0.00,VWS V13.01,2013-02-27 06:03:00,
2013-02-27 01:08:00,76.8,72.5,29.90,East,79,2.4,5.0,87,0.00,,---,0.00,VWS V13.01,2013-02-27 06:08:00,
2013-02-27 01:13:00,76.7,72.4,29.89,SSE,158,2.9,2.9,86,0.00,,---,0.00,VWS V13.01,2013-02-27 06:13:00,
2013-02-27 01:18:00,76.5,72.2,29.89,SSE,150,3.8,4.3,86,0.00,,---,0.00,VWS V13.01,2013-02-27 06:18:00,
2013-02-27 01:23:00,76.7,72.4,29.89,SSE,152,1.6,1.7,86,0.00,,---,0.00,VWS V13.01,2013-02-27 06:23:00,
2013-02-27 01:28:00,76.4,72.1,29.89,SSE,165,1.8,3.4,87,0.00,,---,0.00,VWS V13.01,2013-02-27 06:28:00,
2013-02-27 01:33:00,76.4,72.2,29.89,SE,142,1.9,3.5,87,0.00,,---,0.00,VWS V13.01,2013-02-27 06:33:00,
2013-02-27 01:38:00,76.6,72.4,29.89,SE,131,3.9,4.5,87,0.00,,---,0.00,VWS V13.01,2013-02-27 06:38:00,
2013-02-27 01:43:00,76.2,72.0,29.89,South,191,4.4,4.4,87,0.00,,---,0.00,VWS V13.01,2013-02-27 06:43:00,
2013-02-27 01:48:00,76.2,72.1,29.89,SE,143,2.8,2.8,87,0.00,,---,0.00,VWS V13.01,2013-02-27 06:48:00,
2013-02-27 01:53:00,76.1,72.1,29.89,SSW,210,2.4,3.0,87,0.00,,---,0.00,VWS V13.01,2013-02-27 06:53:00,
2013-02-27 01:58:00,76.2,72.2,29.89,SSW,202,2.5,2.9,87,0.00,,---,0.00,VWS V13.01,2013-02-27 06:58:00,
2013-02-27 02:03:00,75.9,71.9,29.89,SSE,165,2.5,4.2,87,0.00,,---,0.00,VWS V13.01,2013-02-27 07:03:00,
2013-02-27 02:08:00,76.1,72.1,29.89,SSE,148,0.4,1.7,87,0.00,,---,0.00,VWS V13.01,2013-02-27 07:08:00,
2013-02-27 02:13:00,75.9,71.9,29.89,South,186,1.4,1.8,87,0.00,,---,0.00,VWS V13.01,2013-02-27 07:13:00,
2013-02-27 02:18:00,75.8,71.8,29.89,SSE,167,0.0,1.1,88,0.00,,---,0.00,VWS V13.01,2013-02-27 07:18:00,
2013-02-27 02:23:00,76.2,72.3,29.89,SW,231,4.4,4.4,88,0.00,,---,0.00,VWS V13.01,2013-02-27 07:23:00,
2013-02-27 02:28:00,76.1,72.1,29.89,South,173,3.5,4.5,88,0.00,,---,0.00,VWS V13.01,2013-02-27 07:28:00,
2013-02-27 02:33:00,76.1,72.1,29.88,SSW,205,2.8,3.9,87,0.00,,---,0.00,VWS V13.01,2013-02-27 07:33:00,
2013-02-27 02:38:00,76.1,72.1,29.88,SSE,163,3.5,4.2,88,0.00,,---,0.00,VWS V13.01,2013-02-27 07:38:00,
2013-02-27 02:44:00,76.3,72.3,29.88,South,169,3.4,3.4,87,0.00,,---,0.00,VWS V13.01,2013-02-27 07:44:00,
2013-02-27 02:49:00,76.0,72.0,29.87,South,179,1.2,3.5,87,0.00,,---,0.00,VWS V13.01,2013-02-27 07:49:00,
2013-02-27 02:54:00,76.0,72.1,29.88,South,184,1.1,1.1,88,0.00,,---,0.00,VWS V13.01,2013-02-27 07:54:00,
2013-02-27 02:59:00,76.0,72.1,29.88,SSW,200,0.0,0.3,88,0.00,,---,0.00,VWS V13.01,2013-02-27 07:59:00,
2013-02-27 03:04:00,75.9,72.1,29.88,WSW,255,0.6,2.2,88,0.00,,---,0.00,VWS V13.01,2013-02-27 08:04:00,
2013-02-27 03:09:00,75.7,72.0,29.88,SSW,202,2.4,2.9,88,0.00,,---,0.00,VWS V13.01,2013-02-27 08:09:00,
2013-02-27 03:14:00,75.7,72.1,29.88,SW,235,1.3,2.7,89,0.00,,---,0.00,VWS V13.01,2013-02-27 08:14:00,
2013-02-27 03:19:00,75.7,72.2,29.88,South,173,1.7,4.2,89,0.00,,---,0.00,VWS V13.01,2013-02-27 08:19:00,
2013-02-27 03:24:00,75.9,72.5,29.88,SW,217,2.3,3.0,89,0.00,,---,0.00,VWS V13.01,2013-02-27 08:24:00,
2013-02-27 03:29:00,75.8,72.6,29.88,South,176,2.4,7.9,90,0.00,,---,0.00,VWS V13.01,2013-02-27 08:29:00,
2013-02-27 03:34:00,76.0,72.9,29.88,South,179,1.6,2.0,90,0.00,,---,0.00,VWS V13.01,2013-02-27 08:34:00,
2013-02-27 03:39:00,75.8,72.8,29.88,WSW,238,4.5,6.4,90,0.00,,---,0.00,VWS V13.01,2013-02-27 08:39:00,
2013-02-27 03:44:00,75.8,72.9,29.88,SSW,200,2.7,3.9,91,0.00,,---,0.00,VWS V13.01,2013-02-27 08:44:00,
2013-02-27 03:49:00,75.8,73.0,29.88,SSW,211,3.9,3.9,91,0.00,,---,0.00,VWS V13.01,2013-02-27 08:49:00,
2013-02-27 03:54:00,76.0,73.2,29.88,South,177,3.7,4.8,91,0.00,,---,0.00,VWS V13.01,2013-02-27 08:54:00,
2013-02-27 03:59:00,75.7,73.0,29.88,SSW,207,4.3,6.8,91,0.00,,---,0.00,VWS V13.01,2013-02-27 08:59:00,
2013-02-27 04:04:00,75.7,73.1,29.88,West,264,4.1,4.4,92,0.00,,---,0.00,VWS V13.01,2013-02-27 09:04:00,
2013-02-27 04:09:00,75.4,72.6,29.88,West,281,1.6,3.2,91,0.00,,---,0.00,VWS V13.01,2013-02-27 09:09:00,
2013-02-27 04:14:00,75.3,72.5,29.88,West,267,4.0,6.3,91,0.00,,---,0.00,VWS V13.01,2013-02-27 09:14:00,
2013-02-27 04:19:00,75.3,72.5,29.88,WSW,250,3.7,4.1,91,0.00,,---,0.00,VWS V13.01,2013-02-27 09:19:00,
2013-02-27 04:24:00,75.3,72.5,29.88,SW,219,5.5,7.0,91,0.00,,---,0.00,VWS V13.01,2013-02-27 09:24:00,
2013-02-27 04:30:00,75.0,72.1,29.88,SW,224,2.1,5.6,91,0.00,,---,0.00,VWS V13.01,2013-02-27 09:30:00,
2013-02-27 04:35:00,74.9,72.0,29.88,WSW,257,3.5,7.3,91,0.00,,---,0.00,VWS V13.01,2013-02-27 09:35:00,
2013-02-27 04:40:00,74.8,71.8,29.88,WNW,283,3.0,3.0,90,0.00,,---,0.00,VWS V13.01,2013-02-27 09:40:00,
2013-02-27 04:45:00,74.9,72.0,29.88,WSW,255,2.9,6.1,91,0.00,,---,0.00,VWS V13.01,2013-02-27 09:45:00,
2013-02-27 04:50:00,74.6,71.7,29.88,SSW,212,6.3,6.3,91,0.00,,---,0.00,VWS V13.01,2013-02-27 09:50:00,
2013-02-27 04:55:00,74.7,71.8,29.89,SW,236,4.4,5.2,91,0.00,,---,0.00,VWS V13.01,2013-02-27 09:55:00,
2013-02-27 05:00:00,74.6,71.7,29.89,WSW,250,2.9,6.0,91,0.00,,---,0.00,VWS V13.01,2013-02-27 10:00:00,
2013-02-27 05:05:00,74.3,71.3,29.89,WSW,253,2.6,7.3,90,0.00,,---,0.00,VWS V13.01,2013-02-27 10:05:00,
2013-02-27 05:10:00,74.0,70.9,29.89,SSW,204,4.0,6.7,90,0.00,,---,0.00,VWS V13.01,2013-02-27 10:10:00,
2013-02-27 05:15:00,73.9,70.9,29.89,West,270,3.4,5.7,90,0.00,,---,0.00,VWS V13.01,2013-02-27 10:15:00,
2013-02-27 05:20:00,73.9,70.9,29.89,WNW,288,1.1,4.3,90,0.00,,---,0.00,VWS V13.01,2013-02-27 10:20:00,
2013-02-27 05:25:00,73.8,70.9,29.89,SSW,210,6.7,7.1,91,0.00,,---,0.00,VWS V13.01,2013-02-27 10:25:00,
2013-02-27 05:30:00,73.8,71.0,29.90,WSW,242,3.7,3.8,91,0.00,,---,0.00,VWS V13.01,2013-02-27 10:30:00,
2013-02-27 05:35:00,73.1,70.0,29.90,WNW,284,5.5,12.3,90,0.00,,---,0.00,VWS V13.01,2013-02-27 10:35:00,
2013-02-27 05:40:00,72.4,67.4,29.91,WSW,238,4.8,7.1,84,0.00,,---,0.00,VWS V13.01,2013-02-27 10:40:00,
2013-02-27 05:46:00,72.0,66.3,29.91,NW,311,4.0,9.3,82,0.00,,---,0.00,VWS V13.01,2013-02-27 10:46:00,
2013-02-27 05:51:00,71.9,66.2,29.91,WNW,294,5.3,6.7,82,0.00,,---,0.00,VWS V13.01,2013-02-27 10:51:00,
2013-02-27 05:56:00,71.5,65.7,29.91,NW,315,5.0,9.4,82,0.00,,---,0.00,VWS V13.01,2013-02-27 10:56:00,
2013-02-27 06:01:00,71.9,66.4,29.92,WNW,302,4.7,7.1,83,0.00,,---,0.00,VWS V13.01,2013-02-27 11:01:00,
2013-02-27 06:06:00,71.7,66.4,29.92,NW,314,3.6,7.4,83,0.00,,---,0.00,VWS V13.01,2013-02-27 11:06:00,
2013-02-27 06:11:00,71.5,66.3,29.92,WNW,285,2.5,7.4,84,0.00,,---,0.00,VWS V13.01,2013-02-27 11:11:00,
2013-02-27 06:16:00,70.7,65.6,29.92,West,273,6.6,13.8,84,0.00,,---,0.00,VWS V13.01,2013-02-27 11:16:00,
2013-02-27 06:21:00,70.7,66.1,29.92,West,276,4.2,7.3,85,0.00,,---,0.00,VWS V13.01,2013-02-27 11:21:00,
2013-02-27 06:26:00,70.5,66.2,29.92,West,273,5.7,9.6,86,0.00,,---,0.00,VWS V13.01,2013-02-27 11:26:00,
2013-02-27 06:31:00,70.4,66.7,29.93,NW,304,2.2,5.2,88,0.00,,---,0.00,VWS V13.01,2013-02-27 11:31:00,
2013-02-27 06:36:00,70.3,66.9,29.93,NW,325,1.4,4.2,89,0.00,,---,0.00,VWS V13.01,2013-02-27 11:36:00,
2013-02-27 06:41:00,70.0,66.7,29.93,NW,318,1.7,1.9,89,0.00,,---,0.00,VWS V13.01,2013-02-27 11:41:00,
2013-02-27 06:46:00,69.9,66.7,29.93,WNW,283,3.7,4.7,90,0.00,,---,0.00,VWS V13.01,2013-02-27 11:46:00,
2013-02-27 06:52:00,69.6,66.3,29.93,NW,319,3.5,6.6,89,0.00,,---,0.00,VWS V13.01,2013-02-27 11:52:00,
2013-02-27 06:57:00,69.8,66.5,29.94,NW,309,4.5,5.2,89,0.00,,---,0.00,VWS V13.01,2013-02-27 11:57:00,
2013-02-27 07:02:00,69.9,66.6,29.94,WNW,294,3.0,5.0,89,0.00,,---,0.00,VWS V13.01,2013-02-27 12:02:00,
2013-02-27 07:07:00,70.1,66.8,29.94,WNW,297,3.8,4.3,89,0.00,,---,0.00,VWS V13.01,2013-02-27 12:07:00,
2013-02-27 07:12:00,70.1,66.8,29.94,WSW,249,4.5,6.0,89,0.00,,---,0.00,VWS V13.01,2013-02-27 12:12:00,
2013-02-27 07:17:00,70.0,66.7,29.94,West,276,3.0,3.7,89,0.00,,---,0.00,VWS V13.01,2013-02-27 12:17:00,
2013-02-27 07:22:00,69.9,66.8,29.95,NW,314,1.1,5.1,90,0.00,,---,0.00,VWS V13.01,2013-02-27 12:22:00,
2013-02-27 07:27:00,69.9,66.8,29.95,NW,305,4.5,4.5,90,0.00,,---,0.00,VWS V13.01,2013-02-27 12:27:00,
2013-02-27 07:32:00,69.9,67.0,29.95,WNW,288,1.8,3.7,90,0.00,,---,0.00,VWS V13.01,2013-02-27 12:32:00,
2013-02-27 07:37:00,69.7,66.6,29.95,North,0,5.2,5.8,90,0.00,,---,0.00,VWS V13.01,2013-02-27 12:37:00,
2013-02-27 07:42:00,69.7,66.6,29.95,North,352,3.4,4.7,90,0.00,,---,0.00,VWS V13.01,2013-02-27 12:42:00,
2013-02-27 07:47:00,69.6,66.4,29.95,WNW,302,3.4,6.4,90,0.00,,---,0.00,VWS V13.01,2013-02-27 12:47:00,
2013-02-27 07:53:00,69.8,66.5,29.95,NW,311,5.4,6.5,89,0.00,,---,0.00,VWS V13.01,2013-02-27 12:53:00,
2013-02-27 07:58:00,69.8,66.3,29.95,NW,318,2.4,7.3,89,0.00,,---,0.00,VWS V13.01,2013-02-27 12:58:00,
2013-02-27 08:03:00,69.8,66.2,29.95,NW,326,2.6,10.1,88,0.00,,---,0.00,VWS V13.01,2013-02-27 13:03:00,
2013-02-27 08:08:00,69.5,65.9,29.95,WNW,290,7.8,8.2,88,0.00,,---,0.00,VWS V13.01,2013-02-27 13:08:00,
2013-02-27 08:13:00,69.6,65.8,29.95,NW,318,6.6,8.1,88,0.00,,---,0.00,VWS V13.01,2013-02-27 13:13:00,
2013-02-27 08:18:00,69.6,65.7,29.95,North,352,4.2,8.3,87,0.00,,---,0.00,VWS V13.01,2013-02-27 13:18:00,
2013-02-27 08:23:00,70.0,65.9,29.95,West,276,3.6,6.2,87,0.00,,---,0.00,VWS V13.01,2013-02-27 13:23:00,
2013-02-27 08:28:00,70.3,66.2,29.95,NW,318,3.0,3.0,87,0.00,,---,0.00,VWS V13.01,2013-02-27 13:28:00,
2013-02-27 08:33:00,70.6,66.1,29.95,WNW,288,6.8,6.8,86,0.00,,---,0.00,VWS V13.01,2013-02-27 13:33:00,
2013-02-27 08:38:00,70.8,66.3,29.96,NW,309,2.0,5.6,86,0.00,,---,0.00,VWS V13.01,2013-02-27 13:38:00,
2013-02-27 08:43:00,70.9,66.2,29.96,WNW,297,8.5,8.5,85,0.00,,---,0.00,VWS V13.01,2013-02-27 13:43:00,
2013-02-27 08:48:00,71.2,66.3,29.96,SW,236,1.6,6.5,84,0.00,,---,0.00,VWS V13.01,2013-02-27 13:48:00,
2013-02-27 08:53:00,71.4,66.3,29.96,NW,308,2.0,4.1,84,0.00,,---,0.00,VWS V13.01,2013-02-27 13:53:00,
2013-02-27 08:58:00,71.5,66.0,29.96,WNW,288,8.1,8.6,83,0.00,,---,0.00,VWS V13.01,2013-02-27 13:58:00,
2013-02-27 09:03:00,71.9,66.2,29.96,WNW,300,4.8,9.3,82,0.00,,---,0.00,VWS V13.01,2013-02-27 14:03:00,
2013-02-27 09:09:00,71.8,66.1,29.96,WSW,250,5.7,7.5,82,0.00,,---,0.00,VWS V13.01,2013-02-27 14:09:00,
2013-02-27 09:14:00,71.9,66.5,29.97,NNW,330,4.2,8.3,83,0.00,,---,0.00,VWS V13.01,2013-02-27 14:14:00,
2013-02-27 09:19:00,71.6,65.8,29.97,West,266,6.9,7.0,82,0.00,,---,0.00,VWS V13.01,2013-02-27 14:19:00,
2013-02-27 09:24:00,71.4,65.2,29.97,WSW,246,3.6,9.7,81,0.00,,---,0.00,VWS V13.01,2013-02-27 14:24:00,
2013-02-27 09:29:00,71.9,65.2,29.97,West,278,4.5,6.3,79,0.00,,---,0.00,VWS V13.01,2013-02-27 14:29:00,
2013-02-27 09:34:00,72.3,65.1,29.97,WNW,302,3.8,7.5,78,0.00,,---,0.00,VWS V13.01,2013-02-27 14:34:00,
2013-02-27 09:39:00,72.5,64.7,29.97,WNW,302,3.9,8.1,77,0.00,,---,0.00,VWS V13.01,2013-02-27 14:39:00,
2013-02-27 09:44:00,72.9,65.0,29.97,NW,311,6.2,8.0,76,0.00,,---,0.00,VWS V13.01,2013-02-27 14:44:00,
2013-02-27 09:49:00,73.0,64.7,29.97,NW,316,6.1,9.9,75,0.00,,---,0.00,VWS V13.01,2013-02-27 14:49:00,
2013-02-27 09:54:00,73.0,63.9,29.97,West,270,6.4,8.2,73,0.00,,---,0.00,VWS V13.01,2013-02-27 14:54:00,
2013-02-27 09:59:00,73.0,64.3,29.97,WNW,301,6.0,7.8,74,0.00,,---,0.00,VWS V13.01,2013-02-27 14:59:00,
2013-02-27 10:04:00,73.4,64.8,29.97,WNW,301,2.4,4.6,75,0.00,,---,0.00,VWS V13.01,2013-02-27 15:04:00,
2013-02-27 10:09:00,73.5,64.2,29.97,NW,307,5.6,5.6,73,0.00,,---,0.00,VWS V13.01,2013-02-27 15:09:00,
2013-02-27 10:14:00,73.6,64.2,29.97,SW,231,2.9,4.4,72,0.00,,---,0.00,VWS V13.01,2013-02-27 15:14:00,
2013-02-27 10:19:00,74.3,64.9,29.97,WNW,288,3.2,7.0,72,0.00,,---,0.00,VWS V13.01,2013-02-27 15:19:00,
2013-02-27 10:24:00,74.9,65.2,29.98,WNW,288,1.5,2.8,72,0.00,,---,0.00,VWS V13.01,2013-02-27 15:24:00,
2013-02-27 10:29:00,74.6,64.6,29.97,WNW,287,5.6,7.1,71,0.00,,---,0.00,VWS V13.01,2013-02-27 15:29:00,
2013-02-27 10:34:00,74.7,64.0,29.98,NW,311,3.0,6.8,69,0.00,,---,0.00,VWS V13.01,2013-02-27 15:34:00,
2013-02-27 10:39:00,75.5,64.5,29.98,NNW,343,2.4,4.8,69,0.00,,---,0.00,VWS V13.01,2013-02-27 15:39:00,
2013-02-27 10:44:00,75.7,64.3,29.97,WNW,300,3.3,5.7,68,0.00,,---,0.00,VWS V13.01,2013-02-27 15:44:00,
2013-02-27 10:49:00,75.5,64.0,29.98,North,8,0.9,4.2,67,0.00,,---,0.00,VWS V13.01,2013-02-27 15:49:00,
2013-02-27 10:54:00,75.8,64.2,29.98,NNW,338,4.3,5.1,67,0.00,,---,0.00,VWS V13.01,2013-02-27 15:54:00,
2013-02-27 10:59:00,75.3,63.0,29.98,SW,217,4.2,7.8,66,0.00,,---,0.00,VWS V13.01,2013-02-27 15:59:00,
2013-02-27 11:04:00,75.6,63.6,29.97,SW,225,2.1,2.6,66,0.00,,---,0.00,VWS V13.01,2013-02-27 16:04:00,
2013-02-27 11:09:00,75.4,63.2,29.97,WNW,287,2.0,3.1,66,0.00,,---,0.00,VWS V13.01,2013-02-27 16:09:00,
2013-02-27 11:14:00,75.9,64.0,29.97,West,281,0.9,1.6,66,0.00,,---,0.00,VWS V13.01,2013-02-27 16:14:00,
2013-02-27 11:19:00,75.8,63.6,29.98,WNW,295,4.4,7.7,66,0.00,,---,0.00,VWS V13.01,2013-02-27 16:19:00,
2013-02-27 11:24:00,75.6,63.2,29.98,NW,321,0.7,1.7,66,0.00,,---,0.00,VWS V13.01,2013-02-27 16:24:00,
2013-02-27 11:29:00,75.8,63.1,29.98,NNW,346,1.4,1.4,65,0.00,,---,0.00,VWS V13.01,2013-02-27 16:29:00,
2013-02-27 11:34:00,76.0,63.0,29.98,NW,314,2.3,4.0,64,0.00,,---,0.00,VWS V13.01,2013-02-27 16:34:00,
2013-02-27 11:39:00,76.0,62.5,29.97,West,270,1.2,3.4,63,0.00,,---,0.00,VWS V13.01,2013-02-27 16:39:00,
2013-02-27 11:44:00,75.8,62.5,29.97,NW,309,1.9,5.5,64,0.00,,---,0.00,VWS V13.01,2013-02-27 16:44:00,
2013-02-27 11:49:00,75.9,62.5,29.97,NW,307,5.5,6.7,63,0.00,,---,0.00,VWS V13.01,2013-02-27 16:49:00,
2013-02-27 11:54:00,75.0,61.6,29.97,WNW,284,6.8,9.1,63,0.00,,---,0.00,VWS V13.01,2013-02-27 16:54:00,
2013-02-27 11:59:00,75.4,62.2,29.97,NNW,329,0.9,3.2,64,0.00,,---,0.00,VWS V13.01,2013-02-27 16:59:00,
2013-02-27 12:04:00,75.2,61.6,29.97,West,262,4.1,4.4,63,0.00,,---,0.00,VWS V13.01,2013-02-27 17:04:00,
2013-02-27 12:09:00,75.4,62.0,29.97,WNW,298,0.7,4.2,63,0.00,,---,0.00,VWS V13.01,2013-02-27 17:09:00,
2013-02-27 12:14:00,75.4,61.9,29.97,SW,229,1.1,5.2,63,0.00,,---,0.00,VWS V13.01,2013-02-27 17:14:00,
2013-02-27 12:19:00,75.2,61.6,29.97,NNW,335,2.2,5.1,63,0.00,,---,0.00,VWS V13.01,2013-02-27 17:19:00,
2013-02-27 12:24:00,75.3,61.8,29.97,WNW,291,4.2,4.7,63,0.00,,---,0.00,VWS V13.01,2013-02-27 17:24:00,
2013-02-27 12:29:00,75.5,61.6,29.97,SW,225,2.3,2.4,62,0.00,,---,0.00,VWS V13.01,2013-02-27 17:29:00,
2013-02-27 12:34:00,75.2,61.7,29.96,West,273,1.3,2.3,63,0.00,,---,0.00,VWS V13.01,2013-02-27 17:34:00,
2013-02-27 12:39:00,75.1,62.0,29.96,SSW,200,2.9,2.9,64,0.00,,---,0.00,VWS V13.01,2013-02-27 17:39:00,
2013-02-27 12:44:00,75.0,63.1,29.96,SE,129,0.7,1.5,67,0.00,,---,0.00,VWS V13.01,2013-02-27 17:44:00,
2013-02-27 12:49:00,74.3,64.2,29.96,SE,127,1.1,3.7,71,0.01,,---,0.01,VWS V13.01,2013-02-27 17:49:00,
2013-02-27 12:54:00,73.8,64.8,29.96,SE,131,0.6,2.1,73,0.02,,---,0.02,VWS V13.01,2013-02-27 17:54:00,
2013-02-27 12:59:00,73.0,64.8,29.96,SE,136,1.4,1.4,76,0.02,,---,0.02,VWS V13.01,2013-02-27 17:59:00,
2013-02-27 13:04:00,72.5,64.6,29.96,ESE,120,0.0,0.0,76,0.02,,---,0.02,VWS V13.01,2013-02-27 18:04:00,
2013-02-27 13:09:00,72.3,64.8,29.96,WSW,243,0.0,0.0,77,0.02,,---,0.02,VWS V13.01,2013-02-27 18:09:00,
2013-02-27 13:14:00,71.9,64.8,29.96,West,274,1.2,1.2,78,0.02,,---,0.02,VWS V13.01,2013-02-27 18:14:00,
2013-02-27 13:20:00,71.8,65.0,29.96,SW,233,0.6,0.8,79,0.04,,---,0.04,VWS V13.01,2013-02-27 18:20:00,
2013-02-27 13:25:00,71.5,65.2,29.95,SSE,155,1.6,1.6,81,0.05,,---,0.05,VWS V13.01,2013-02-27 18:25:00,
2013-02-27 13:30:00,71.1,65.0,29.95,ESE,117,0.9,2.1,81,0.05,,---,0.05,VWS V13.01,2013-02-27 18:30:00,
2013-02-27 13:35:00,71.0,65.4,29.95,East,96,0.6,2.1,82,0.06,,---,0.06,VWS V13.01,2013-02-27 18:35:00,
2013-02-27 13:40:00,70.7,65.3,29.95,ESE,122,0.0,0.9,83,0.06,,---,0.06,VWS V13.01,2013-02-27 18:40:00,
2013-02-27 13:45:00,70.5,65.6,29.95,SSE,148,2.4,3.7,85,0.06,,---,0.06,VWS V13.01,2013-02-27 18:45:00,
2013-02-27 13:50:00,70.2,65.8,29.95,SSE,165,1.7,2.7,86,0.07,,---,0.07,VWS V13.01,2013-02-27 18:50:00,
2013-02-27 13:55:00,69.9,66.4,29.96,ESE,122,3.4,4.9,89,0.10,,---,0.13,VWS V13.01,2013-02-27 18:55:00,
2013-02-27 14:00:00,69.4,66.1,29.95,South,184,0.7,2.9,89,0.18,,---,0.22,VWS V13.01,2013-02-27 19:00:00,
2013-02-27 14:05:00,69.4,66.4,29.95,East,90,0.0,1.3,90,0.24,,---,0.26,VWS V13.01,2013-02-27 19:05:00,
2013-02-27 14:10:00,69.1,66.3,29.94,ESE,108,0.0,2.1,91,0.27,,---,0.29,VWS V13.01,2013-02-27 19:10:00,
2013-02-27 14:15:00,69.0,66.4,29.94,ENE,73,1.4,1.4,91,0.27,,---,0.29,VWS V13.01,2013-02-27 19:15:00,
2013-02-27 14:20:00,68.7,66.0,29.94,East,98,0.0,0.0,91,0.26,,---,0.30,VWS V13.01,2013-02-27 19:20:00,
2013-02-27 14:25:00,68.4,65.9,29.94,East,98,0.0,0.0,92,0.25,,---,0.30,VWS V13.01,2013-02-27 19:25:00,
2013-02-27 14:30:00,68.7,66.4,29.94,East,98,0.0,0.0,92,0.25,,---,0.30,VWS V13.01,2013-02-27 19:30:00,
2013-02-27 14:35:00,68.6,66.3,29.93,ESE,118,0.0,0.0,92,0.24,,---,0.30,VWS V13.01,2013-02-27 19:35:00,
2013-02-27 14:40:00,68.6,66.4,29.93,ESE,118,0.0,0.0,93,0.24,,---,0.30,VWS V13.01,2013-02-27 19:40:00,
2013-02-27 14:45:00,68.8,66.6,29.94,South,173,0.0,0.4,93,0.24,,---,0.30,VWS V13.01,2013-02-27 19:45:00,
2013-02-27 14:50:00,68.9,66.7,29.93,WSW,243,2.1,2.8,93,0.23,,---,0.30,VWS V13.01,2013-02-27 19:50:00,
2013-02-27 14:55:00,68.8,66.5,29.93,SSW,193,0.0,0.0,92,0.18,,---,0.30,VWS V13.01,2013-02-27 19:55:00,
2013-02-27 15:00:00,69.0,66.8,29.93,South,176,0.8,1.2,93,0.10,,---,0.30,VWS V13.01,2013-02-27 20:00:00,
2013-02-27 15:05:00,69.1,66.8,29.93,ESE,115,0.0,0.6,92,0.04,,---,0.30,VWS V13.01,2013-02-27 20:05:00,
2013-02-27 15:10:00,69.3,67.1,29.92,South,169,0.0,0.0,93,0.02,,---,0.30,VWS V13.01,2013-02-27 20:10:00,
2013-02-27 15:15:00,69.2,66.8,29.92,WNW,302,2.4,2.5,92,0.01,,---,0.30,VWS V13.01,2013-02-27 20:15:00,
2013-02-27 15:21:00,69.5,67.2,29.92,SW,215,3.9,3.9,92,0.00,,---,0.30,VWS V13.01,2013-02-27 20:21:00,
2013-02-27 15:26:00,69.5,67.0,29.93,WSW,252,0.7,0.9,92,0.00,,---,0.30,VWS V13.01,2013-02-27 20:26:00,
2013-02-27 15:31:00,69.4,67.0,29.93,SSE,165,1.7,2.8,92,0.00,,---,0.30,VWS V13.01,2013-02-27 20:31:00,
2013-02-27 15:36:00,69.4,67.0,29.93,WNW,285,3.5,4.5,92,0.00,,---,0.30,VWS V13.01,2013-02-27 20:36:00,
2013-02-27 15:41:00,69.5,67.1,29.92,West,260,0.5,2.5,92,0.00,,---,0.30,VWS V13.01,2013-02-27 20:41:00,
2013-02-27 15:46:00,69.6,67.2,29.92,West,263,1.2,2.5,92,0.00,,---,0.30,VWS V13.01,2013-02-27 20:46:00,
2013-02-27 15:51:00,69.5,67.1,29.92,WNW,283,0.0,0.0,92,0.00,,---,0.30,VWS V13.01,2013-02-27 20:51:00,
2013-02-27 15:56:00,69.9,67.5,29.92,WNW,283,0.0,0.0,92,0.00,,---,0.30,VWS V13.01,2013-02-27 20:56:00,
2013-02-27 16:01:00,70.0,67.7,29.92,SW,236,0.0,3.0,92,0.00,,---,0.30,VWS V13.01,2013-02-27 21:01:00,
2013-02-27 16:06:00,70.2,67.7,29.92,NE,49,0.0,0.4,92,0.00,,---,0.30,VWS V13.01,2013-02-27 21:06:00,
2013-02-27 16:11:00,70.1,67.4,29.92,WNW,294,1.4,2.0,91,0.00,,---,0.30,VWS V13.01,2013-02-27 21:11:00,
2013-02-27 16:16:00,70.0,67.3,29.92,West,276,3.3,3.5,91,0.00,,---,0.30,VWS V13.01,2013-02-27 21:16:00,
2013-02-27 16:22:00,70.2,67.4,29.92,West,273,2.1,3.5,91,0.00,,---,0.30,VWS V13.01,2013-02-27 21:22:00,
2013-02-27 16:27:00,70.0,67.4,29.93,WNW,295,5.2,5.7,91,0.00,,---,0.30,VWS V13.01,2013-02-27 21:27:00,
2013-02-27 16:32:00,70.0,67.4,29.93,NW,315,3.3,5.5,92,0.00,,---,0.30,VWS V13.01,2013-02-27 21:32:00,
2013-02-27 16:37:00,69.9,67.3,29.93,WNW,298,2.7,5.3,92,0.00,,---,0.30,VWS V13.01,2013-02-27 21:37:00,
2013-02-27 16:42:00,69.6,67.1,29.94,West,274,3.3,3.6,92,0.00,,---,0.30,VWS V13.01,2013-02-27 21:42:00,
2013-02-27 16:47:00,69.4,66.8,29.94,WNW,290,5.3,6.6,92,0.00,,---,0.30,VWS V13.01,2013-02-27 21:47:00,
2013-02-27 16:52:00,69.4,66.8,29.94,West,267,2.9,3.7,91,0.00,,---,0.30,VWS V13.01,2013-02-27 21:52:00,
2013-02-27 16:57:00,69.2,66.5,29.94,WNW,297,2.9,5.8,91,0.00,,---,0.30,VWS V13.01,2013-02-27 21:57:00,
2013-02-27 17:02:00,69.1,66.6,29.94,NW,304,4.7,6.4,92,0.00,,---,0.30,VWS V13.01,2013-02-27 22:02:00,
2013-02-27 17:07:00,68.4,66.2,29.94,WNW,284,8.5,9.4,92,0.01,,---,0.31,VWS V13.01,2013-02-27 22:07:00,
2013-02-27 17:12:00,68.2,66.4,29.94,NW,308,6.8,6.8,94,0.01,,---,0.31,VWS V13.01,2013-02-27 22:12:00,
2013-02-27 17:17:00,68.1,66.5,29.94,NW,304,3.9,4.2,95,0.01,,---,0.31,VWS V13.01,2013-02-27 22:17:00,
2013-02-27 17:22:00,67.7,66.2,29.94,NW,312,3.5,4.1,95,0.01,,---,0.31,VWS V13.01,2013-02-27 22:22:00,
2013-02-27 17:27:00,67.2,65.8,29.94,NW,308,5.3,7.4,95,0.01,,---,0.31,VWS V13.01,2013-02-27 22:27:00,
2013-02-27 17:32:00,67.1,65.7,29.94,WNW,287,4.3,4.3,95,0.01,,---,0.31,VWS V13.01,2013-02-27 22:32:00,
2013-02-27 17:37:00,67.0,65.6,29.94,WNW,284,7.5,8.9,95,0.01,,---,0.31,VWS V13.01,2013-02-27 22:37:00,
2013-02-27 17:42:00,66.9,65.5,29.94,NW,315,1.6,1.9,95,0.01,,---,0.31,VWS V13.01,2013-02-27 22:42:00,
2013-02-27 17:47:00,66.9,65.5,29.94,NW,318,2.7,3.6,95,0.01,,---,0.31,VWS V13.01,2013-02-27 22:47:00,
2013-02-27 17:52:00,66.9,65.5,29.95,West,266,0.0,0.9,95,0.01,,---,0.31,VWS V13.01,2013-02-27 22:52:00,
2013-02-27 17:57:00,67.0,65.6,29.95,WNW,287,3.5,5.0,95,0.01,,---,0.31,VWS V13.01,2013-02-27 22:57:00,
2013-02-27 18:02:00,66.8,65.4,29.95,NW,319,3.0,4.5,95,0.01,,---,0.31,VWS V13.01,2013-02-27 23:02:00,
2013-02-27 18:08:00,66.8,65.4,29.95,WNW,295,4.6,4.6,95,0.00,,---,0.31,VWS V13.01,2013-02-27 23:08:00,
2013-02-27 18:13:00,66.6,65.2,29.95,NW,304,4.0,5.0,95,0.00,,---,0.31,VWS V13.01,2013-02-27 23:13:00,
2013-02-27 18:18:00,66.5,65.1,29.95,WNW,294,3.0,6.6,95,0.00,,---,0.31,VWS V13.01,2013-02-27 23:18:00,
2013-02-27 18:23:00,66.7,65.3,29.95,WSW,252,3.5,5.1,95,0.00,,---,0.31,VWS V13.01,2013-02-27 23:23:00,
2013-02-27 18:28:00,66.4,64.9,29.95,West,270,2.6,3.1,95,0.00,,---,0.31,VWS V13.01,2013-02-27 23:28:00,
2013-02-27 18:33:00,66.4,64.9,29.95,NW,312,1.8,3.8,95,0.00,,---,0.31,VWS V13.01,2013-02-27 23:33:00,
2013-02-27 18:38:00,66.4,64.9,29.95,WNW,285,2.4,4.2,95,0.00,,---,0.31,VWS V13.01,2013-02-27 23:38:00,
2013-02-27 18:43:00,66.4,64.9,29.95,WNW,295,3.5,4.7,95,0.00,,---,0.31,VWS V13.01,2013-02-27 23:43:00,
2013-02-27 18:48:00,66.5,64.9,29.96,NW,326,1.4,4.8,95,0.00,,---,0.31,VWS V13.01,2013-02-27 23:48:00,
2013-02-27 18:53:00,66.7,65.1,29.95,NW,314,1.9,3.5,95,0.00,,---,0.31,VWS V13.01,2013-02-27 23:53:00,
2013-02-27 18:58:00,66.7,65.1,29.95,West,278,2.7,3.2,95,0.00,,---,0.31,VWS V13.01,2013-02-27 23:58:00,
2013-02-27 19:03:00,66.7,65.1,29.96,WNW,292,4.6,4.7,94,0.00,,---,0.31,VWS V13.01,2013-02-28 00:03:00,
2013-02-27 19:08:00,66.7,65.0,29.96,NW,307,4.5,4.9,94,0.00,,---,0.31,VWS V13.01,2013-02-28 00:08:00,
2013-02-27 19:13:00,66.8,65.1,29.96,NW,322,1.4,4.0,94,0.00,,---,0.31,VWS V13.01,2013-02-28 00:13:00,
2013-02-27 19:18:00,66.5,64.7,29.96,NNW,328,0.7,2.1,94,0.00,,---,0.31,VWS V13.01,2013-02-28 00:18:00,
2013-02-27 19:23:00,66.7,64.9,29.96,NW,314,3.2,3.2,94,0.00,,---,0.31,VWS V13.01,2013-02-28 00:23:00,
2013-02-27 19:29:00,66.6,64.8,29.97,WNW,288,2.9,3.7,94,0.00,,---,0.31,VWS V13.01,2013-02-28 00:29:00,
2013-02-27 19:34:00,66.7,64.9,29.96,North,349,0.7,1.1,94,0.00,,---,0.31,VWS V13.01,2013-02-28 00:34:00,
2013-02-27 19:39:00,66.7,64.9,29.96,WNW,294,2.0,4.4,94,0.00,,---,0.31,VWS V13.01,2013-02-28 00:39:00,
2013-02-27 19:44:00,66.6,64.8,29.97,NW,319,3.6,6.1,94,0.00,,---,0.31,VWS V13.01,2013-02-28 00:44:00,
2013-02-27 19:49:00,66.7,65.0,29.97,WNW,292,1.2,5.7,94,0.00,,---,0.31,VWS V13.01,2013-02-28 00:49:00,
2013-02-27 19:54:00,66.5,64.8,29.97,West,263,3.4,3.5,94,0.00,,---,0.31,VWS V13.01,2013-02-28 00:54:00,
2013-02-27 19:59:00,66.8,65.1,29.97,West,274,2.6,3.2,94,0.00,,---,0.31,VWS V13.01,2013-02-28 00:59:00,
2013-02-27 20:04:00,66.7,64.9,29.97,West,266,1.5,2.2,94,0.00,,---,0.31,VWS V13.01,2013-02-28 01:04:00,
2013-02-27 20:09:00,66.5,64.8,29.98,NW,308,3.5,4.5,94,0.00,,---,0.31,VWS V13.01,2013-02-28 01:09:00,
2013-02-27 20:14:00,66.8,65.2,29.97,NW,312,0.9,2.2,94,0.00,,---,0.31,VWS V13.01,2013-02-28 01:14:00,
2013-02-27 20:19:00,66.7,65.1,29.97,WNW,290,1.6,2.2,94,0.00,,---,0.31,VWS V13.01,2013-02-28 01:19:00,
2013-02-27 20:24:00,66.7,65.1,29.98,West,273,2.0,4.4,95,0.00,,---,0.31,VWS V13.01,2013-02-28 01:24:00,
2013-02-27 20:29:00,66.5,65.1,29.99,NW,312,3.1,3.1,95,0.01,,---,0.32,VWS V13.01,2013-02-28 01:29:00,
2013-02-27 20:34:00,66.4,65.0,29.99,WSW,249,4.2,5.3,95,0.01,,---,0.32,VWS V13.01,2013-02-28 01:34:00,
2013-02-27 20:39:00,66.5,65.2,29.98,WNW,302,4.3,4.3,95,0.01,,---,0.32,VWS V13.01,2013-02-28 01:39:00,
2013-02-27 20:44:00,66.6,65.3,29.98,WNW,301,2.7,4.6,96,0.01,,---,0.32,VWS V13.01,2013-02-28 01:44:00,
2013-02-27 20:49:00,66.4,65.1,29.98,WNW,298,2.7,4.5,96,0.01,,---,0.32,VWS V13.01,2013-02-28 01:49:00,
2013-02-27 20:54:00,66.6,65.3,29.98,West,267,3.3,4.9,96,0.01,,---,0.32,VWS V13.01,2013-02-28 01:54:00,
2013-02-27 20:59:00,66.3,65.0,29.99,NW,318,3.0,3.8,96,0.01,,---,0.32,VWS V13.01,2013-02-28 01:59:00,
2013-02-27 21:04:00,66.5,65.2,29.99,West,269,4.0,4.5,96,0.01,,---,0.32,VWS V13.01,2013-02-28 02:04:00,
2013-02-27 21:09:00,66.4,65.1,29.98,West,280,1.6,2.5,96,0.02,,---,0.33,VWS V13.01,2013-02-28 02:09:00,
2013-02-27 21:14:00,66.1,64.8,29.98,WNW,300,1.5,2.1,96,0.04,,---,0.35,VWS V13.01,2013-02-28 02:14:00,
2013-02-27 21:19:00,66.2,64.9,29.98,West,263,2.4,2.4,96,0.04,,---,0.35,VWS V13.01,2013-02-28 02:19:00,
2013-02-27 21:24:00,66.0,64.7,29.98,SW,225,0.0,0.0,96,0.04,,---,0.35,VWS V13.01,2013-02-28 02:24:00,
2013-02-27 21:29:00,66.0,64.7,29.98,WNW,291,1.4,1.4,96,0.03,,---,0.35,VWS V13.01,2013-02-28 02:29:00,
2013-02-27 21:35:00,65.8,64.5,29.98,South,181,0.0,0.0,96,0.03,,---,0.35,VWS V13.01,2013-02-28 02:35:00,
2013-02-27 21:40:00,65.9,64.6,29.98,WNW,301,1.1,1.4,96,0.03,,---,0.35,VWS V13.01,2013-02-28 02:40:00,
2013-02-27 21:45:00,65.8,64.5,29.99,WSW,249,0.4,2.0,96,0.03,,---,0.35,VWS V13.01,2013-02-28 02:45:00,
2013-02-27 21:50:00,65.7,64.4,29.98,SSW,197,0.0,0.0,96,0.04,,---,0.36,VWS V13.01,2013-02-28 02:50:00,
2013-02-27 21:55:00,65.6,64.3,29.98,SSW,197,0.0,0.0,96,0.04,,---,0.36,VWS V13.01,2013-02-28 02:55:00,
2013-02-27 22:00:00,65.8,64.5,29.98,ESE,110,2.9,3.4,96,0.04,,---,0.36,VWS V13.01,2013-02-28 03:00:00,
2013-02-27 22:05:00,65.9,64.6,29.98,ESE,105,3.0,3.3,96,0.04,,---,0.36,VWS V13.01,2013-02-28 03:05:00,
2013-02-27 22:10:00,65.9,64.6,29.98,ESE,107,0.0,1.6,96,0.03,,---,0.36,VWS V13.01,2013-02-28 03:10:00,
2013-02-27 22:15:00,65.8,64.5,29.98,SSE,158,0.0,1.2,96,0.01,,---,0.36,VWS V13.01,2013-02-28 03:15:00,
2013-02-27 22:20:00,65.9,64.6,29.98,East,84,0.0,3.2,96,0.01,,---,0.36,VWS V13.01,2013-02-28 03:20:00,
2013-02-27 22:25:00,66.0,64.7,29.98,South,183,0.0,1.4,96,0.01,,---,0.36,VWS V13.01,2013-02-28 03:25:00,
2013-02-27 22:30:00,65.9,64.6,29.98,South,183,0.0,0.0,96,0.01,,---,0.36,VWS V13.01,2013-02-28 03:30:00,
2013-02-27 22:35:00,65.9,64.6,29.98,South,183,0.0,0.0,96,0.01,,---,0.36,VWS V13.01,2013-02-28 03:35:00,
2013-02-27 22:40:00,65.9,64.7,29.97,SE,129,1.9,2.2,96,0.01,,---,0.36,VWS V13.01,2013-02-28 03:40:00,
2013-02-27 22:45:00,65.9,64.7,29.98,SE,135,0.5,0.9,96,0.01,,---,0.36,VWS V13.01,2013-02-28 03:45:00,
2013-02-27 22:50:00,66.3,65.1,29.98,SE,145,1.0,4.5,96,0.00,,---,0.36,VWS V13.01,2013-02-28 03:50:00,
2013-02-27 22:55:00,66.1,64.9,29.98,SE,124,0.6,3.8,96,0.00,,---,0.36,VWS V13.01,2013-02-28 03:55:00,
2013-02-27 23:00:00,66.3,65.1,29.98,SW,228,0.0,0.0,96,0.00,,---,0.36,VWS V13.01,2013-02-28 04:00:00,
2013-02-27 23:05:00,66.3,65.1,29.98,West,264,0.7,2.5,96,0.00,,---,0.36,VWS V13.01,2013-02-28 04:05:00,
2013-02-27 23:10:00,66.4,65.2,29.98,WSW,249,0.0,2.7,96,0.00,,---,0.36,VWS V13.01,2013-02-28 04:10:00,
2013-02-27 23:15:00,66.4,65.2,29.98,SW,226,0.0,3.3,96,0.00,,---,0.36,VWS V13.01,2013-02-28 04:15:00,
2013-02-27 23:20:00,66.4,65.2,29.98,West,270,1.9,3.4,96,0.00,,---,0.36,VWS V13.01,2013-02-28 04:20:00,
2013-02-27 23:25:00,66.3,65.1,29.98,WSW,255,0.7,3.0,96,0.00,,---,0.36,VWS V13.01,2013-02-28 04:25:00,
2013-02-27 23:30:00,66.3,65.1,29.98,SE,146,0.3,2.8,96,0.00,,---,0.36,VWS V13.01,2013-02-28 04:30:00,
2013-02-27 23:35:00,66.3,65.1,29.98,West,267,3.7,5.2,96,0.00,,---,0.36,VWS V13.01,2013-02-28 04:35:00,
2013-02-27 23:40:00,66.2,65.1,29.98,West,267,5.6,6.5,96,0.00,,---,0.36,VWS V13.01,2013-02-28 04:40:00,
2013-02-27 23:45:00,66.1,65.0,29.98,WNW,292,2.9,5.2,96,0.00,,---,0.36,VWS V13.01,2013-02-28 04:45:00,
2013-02-27 23:50:00,66.1,65.0,29.98,NW,312,2.9,5.2,96,0.00,,---,0.36,VWS V13.01,2013-02-28 04:50:00,
2013-02-27 23:55:00,66.1,65.0,29.98,West,276,1.9,5.7,96,0.00,,---,0.36,VWS V13.01,2013-02-28 04:55:00,